UAE115 OMDB-KLAX

Flight info

Callsign UAE115
Flight time N/A
Altitude 29000
Route DAVMO M318 RIKOP DCT 3756N05855E/N0494F300 DCT PODOK/N0493F290 B359 ADOBI/K0904F290 N167 KURAB/K0907F310 N167 INKUM/K0904F300 L165 KST/K0898F310 L165 OSGAN/K0900F320 L165 TINRI/K0893F310 L165 BELEG/K0902F320 L165 NILMA/K0902F340 L165 ABERI/N0483F340 DCT 89N140W DCT DEKMO/N0478F330 DCT 85N140W/N0481F340 80N137W/N0486F350 75N135W 70N135W DCT YXY J536 SSR DCT BKA DCT KATCH/N0476F370 DCT KANUA B453 BOXER DCT ENI DCT AVE DCT MUPTT IRNMN2
Aircraft B77W/H-SDE1E2E3FGHIJ2J3J4J5M1RWXY/LB1D1

Departure

Time N/A
Airport Dubai International Airport (OMDB)

Arrival

Time 2026-04-21 18:06
Airport Los Angeles International Airport (KLAX)
Time Latitude Longitude Altitude Speed Heading
2026-04-21 15:10 51.87548 -133.66882 37109 ft 474 kts 152°
2026-04-21 15:10 51.82021 -133.61175 37099 ft 473 kts 152°
2026-04-21 15:11 51.76468 -133.55460 37107 ft 472 kts 151°
2026-04-21 15:11 51.70960 -133.49806 37114 ft 472 kts 151°
2026-04-21 15:12 51.65427 -133.44144 37097 ft 471 kts 151°
2026-04-21 15:12 51.59898 -133.38503 37097 ft 471 kts 151°
2026-04-21 15:13 51.54369 -133.32878 37098 ft 471 kts 152°
2026-04-21 15:13 51.48826 -133.27255 37091 ft 472 kts 152°
2026-04-21 15:14 51.43315 -133.21681 37087 ft 471 kts 152°
2026-04-21 15:14 51.37803 -133.16121 37086 ft 471 kts 152°
2026-04-21 15:15 51.32274 -133.10561 37084 ft 470 kts 152°
2026-04-21 15:15 51.26769 -133.05041 37081 ft 469 kts 152°
2026-04-21 15:16 51.21244 -132.99516 37076 ft 469 kts 152°
2026-04-21 15:16 51.15707 -132.93996 37069 ft 468 kts 152°
2026-04-21 15:17 51.10210 -132.88531 37073 ft 469 kts 152°
2026-04-21 15:17 51.04668 -132.83038 37071 ft 469 kts 151°
2026-04-21 15:18 50.99159 -132.77591 37068 ft 469 kts 152°
2026-04-21 15:18 50.93608 -132.72121 37061 ft 469 kts 151°
2026-04-21 15:19 50.88077 -132.66684 37061 ft 468 kts 151°
2026-04-21 15:19 50.82567 -132.61282 37056 ft 468 kts 151°
2026-04-21 15:20 50.77073 -132.55914 37054 ft 467 kts 151°
2026-04-21 15:20 50.71548 -132.50528 37049 ft 467 kts 151°
2026-04-21 15:21 50.66013 -132.45149 37047 ft 468 kts 151°
2026-04-21 15:21 50.60494 -132.39800 37050 ft 468 kts 151°
2026-04-21 15:22 50.54938 -132.34430 37055 ft 468 kts 151°
2026-04-21 15:22 50.49414 -132.29106 37037 ft 468 kts 151°
2026-04-21 15:23 50.43874 -132.23781 37043 ft 468 kts 151°
2026-04-21 15:23 50.38358 -132.18495 37040 ft 468 kts 151°
2026-04-21 15:24 50.32823 -132.13203 37036 ft 467 kts 151°
2026-04-21 15:24 50.27297 -132.07936 37040 ft 467 kts 151°
2026-04-21 15:25 50.21772 -132.02684 37036 ft 466 kts 151°
2026-04-21 15:25 50.16258 -131.97458 37036 ft 466 kts 151°
2026-04-21 15:26 50.10735 -131.92236 37036 ft 466 kts 150°
2026-04-21 15:26 50.05214 -131.87032 37017 ft 465 kts 150°
2026-04-21 15:27 49.99680 -131.81828 37022 ft 466 kts 150°
2026-04-21 15:27 49.94173 -131.76665 36989 ft 466 kts 150°
2026-04-21 15:28 49.88641 -131.71490 37009 ft 466 kts 150°
2026-04-21 15:28 49.83096 -131.66319 37005 ft 466 kts 150°
2026-04-21 15:29 49.77548 -131.61159 36993 ft 465 kts 150°
2026-04-21 15:29 49.71988 -131.56003 36991 ft 466 kts 150°
2026-04-21 15:30 49.66462 -131.50890 36985 ft 465 kts 149°
2026-04-21 15:30 49.60937 -131.45793 36981 ft 465 kts 149°
2026-04-21 15:31 49.55417 -131.40714 36988 ft 465 kts 149°
2026-04-21 15:31 49.49849 -131.35603 36981 ft 466 kts 149°
2026-04-21 15:32 49.44331 -131.30553 36980 ft 465 kts 150°
2026-04-21 15:32 49.38765 -131.25472 36978 ft 464 kts 149°
2026-04-21 15:33 49.33242 -131.20445 36977 ft 466 kts 149°
2026-04-21 15:33 49.27676 -131.15390 36964 ft 465 kts 149°
2026-04-21 15:34 49.22115 -131.10355 36955 ft 466 kts 149°
2026-04-21 15:34 49.16550 -131.05328 36971 ft 466 kts 149°
2026-04-21 15:35 49.10965 -131.00297 36965 ft 465 kts 148°
2026-04-21 15:35 49.05423 -130.95319 36947 ft 464 kts 148°
2026-04-21 15:36 48.99861 -130.90334 36920 ft 465 kts 148°
2026-04-21 15:36 48.94307 -130.85370 36946 ft 465 kts 148°
2026-04-21 15:37 48.88764 -130.80428 36917 ft 464 kts 148°
2026-04-21 15:37 48.83195 -130.75478 36951 ft 464 kts 148°
2026-04-21 15:38 48.77645 -130.70557 36905 ft 461 kts 148°
2026-04-21 15:38 48.72147 -130.65692 36954 ft 462 kts 148°
2026-04-21 15:39 48.66591 -130.60790 36932 ft 461 kts 147°
2026-04-21 15:39 48.61087 -130.55946 36920 ft 461 kts 147°
2026-04-21 15:40 48.55549 -130.51086 36900 ft 460 kts 147°
2026-04-21 15:40 48.50017 -130.46243 36918 ft 460 kts 147°
2026-04-21 15:41 48.44515 -130.41438 36907 ft 460 kts 147°
2026-04-21 15:41 48.38973 -130.36610 36924 ft 461 kts 147°
2026-04-21 15:42 48.36219 -130.34215 37143 ft 460 kts 148°
2026-04-21 15:42 48.33432 -130.31796 36949 ft 461 kts 148°
2026-04-21 15:42 48.27932 -130.27029 36918 ft 460 kts 148°
2026-04-21 15:43 48.22395 -130.22243 36918 ft 459 kts 147°
2026-04-21 15:43 48.16872 -130.17480 36915 ft 459 kts 147°
2026-04-21 15:44 48.11334 -130.12715 36910 ft 460 kts 147°
2026-04-21 15:44 48.05790 -130.07959 36906 ft 460 kts 147°
2026-04-21 15:45 48.00261 -130.03227 36914 ft 461 kts 147°
2026-04-21 15:45 47.94712 -129.98491 36883 ft 460 kts 147°
2026-04-21 15:46 47.89143 -129.93747 36892 ft 460 kts 147°
2026-04-21 15:46 47.83592 -129.89032 36900 ft 460 kts 147°
2026-04-21 15:47 47.78035 -129.84325 36905 ft 459 kts 147°
2026-04-21 15:47 47.72532 -129.79672 36898 ft 459 kts 147°
2026-04-21 15:48 47.66948 -129.75073 36888 ft 461 kts 148°
2026-04-21 15:48 47.61310 -129.70577 36883 ft 458 kts 148°
2026-04-21 15:49 47.55700 -129.66116 36896 ft 460 kts 148°
2026-04-21 15:49 47.50077 -129.61658 36882 ft 459 kts 148°
2026-04-21 15:50 47.44433 -129.57194 36891 ft 461 kts 148°
2026-04-21 15:50 47.38794 -129.52747 36885 ft 460 kts 148°
2026-04-21 15:51 47.33110 -129.48274 36905 ft 460 kts 148°
2026-04-21 15:51 47.27450 -129.43831 36890 ft 459 kts 148°
2026-04-21 15:52 47.21772 -129.39384 36898 ft 461 kts 148°
2026-04-21 15:52 47.16108 -129.34961 36896 ft 461 kts 149°
2026-04-21 15:53 47.10434 -129.30539 36897 ft 462 kts 149°
2026-04-21 15:53 47.04794 -129.26155 36907 ft 463 kts 149°
2026-04-21 15:54 46.99083 -129.21727 36902 ft 463 kts 149°
2026-04-21 15:54 46.93395 -129.17326 36893 ft 464 kts 150°
2026-04-21 15:55 46.87737 -129.12961 36903 ft 463 kts 149°
2026-04-21 15:55 46.82003 -129.08546 36894 ft 465 kts 150°
2026-04-21 15:56 46.76304 -129.04170 36912 ft 464 kts 149°
2026-04-21 15:56 46.70607 -128.99805 36907 ft 464 kts 150°
2026-04-21 15:57 46.64917 -128.95456 36895 ft 465 kts 150°
2026-04-21 15:57 46.59166 -128.91072 36907 ft 465 kts 150°
2026-04-21 15:58 46.53381 -128.86671 36874 ft 463 kts 150°
2026-04-21 15:58 46.47678 -128.82344 36883 ft 464 kts 150°
2026-04-21 15:59 46.41987 -128.78036 36862 ft 464 kts 150°
2026-04-21 15:59 46.36287 -128.73732 36872 ft 464 kts 150°
2026-04-21 16:00 46.30577 -128.69431 36873 ft 465 kts 150°
2026-04-21 16:00 46.24841 -128.65120 36876 ft 464 kts 150°
2026-04-21 16:01 46.19114 -128.60825 36878 ft 463 kts 150°
2026-04-21 16:01 46.13414 -128.56561 36883 ft 464 kts 150°
2026-04-21 16:02 46.07704 -128.52300 36894 ft 464 kts 150°
2026-04-21 16:02 46.01966 -128.48027 36880 ft 465 kts 150°
2026-04-21 16:03 45.96261 -128.43790 36883 ft 463 kts 150°
2026-04-21 16:03 45.90533 -128.39546 36881 ft 464 kts 150°
2026-04-21 16:04 45.84813 -128.35316 36892 ft 465 kts 150°
2026-04-21 16:04 45.79096 -128.31099 36896 ft 464 kts 151°
2026-04-21 16:05 45.73359 -128.26877 36912 ft 463 kts 151°
2026-04-21 16:05 45.67627 -128.22669 36895 ft 462 kts 151°
2026-04-21 16:06 45.61932 -128.18498 36901 ft 463 kts 151°
2026-04-21 16:06 45.56231 -128.14331 36889 ft 462 kts 151°
2026-04-21 16:07 45.50473 -128.10132 36911 ft 464 kts 151°
2026-04-21 16:07 45.44754 -128.05972 36899 ft 463 kts 151°
2026-04-21 16:08 45.36184 -127.99755 36903 ft 464 kts 151°
2026-04-21 16:09 45.30451 -127.95609 36899 ft 462 kts 151°
2026-04-21 16:09 45.24725 -127.91476 36901 ft 463 kts 151°
2026-04-21 16:10 45.18959 -127.87324 36914 ft 463 kts 152°
2026-04-21 16:10 45.13258 -127.83229 36902 ft 462 kts 152°
2026-04-21 16:11 45.07539 -127.79131 36905 ft 463 kts 152°
2026-04-21 16:11 45.01784 -127.75015 36910 ft 464 kts 152°
2026-04-21 16:12 44.96993 -127.71596 36902 ft 463 kts 152°
2026-04-21 16:12 44.90272 -127.66811 36906 ft 463 kts 152°
2026-04-21 16:13 44.84561 -127.62753 36906 ft 463 kts 152°
2026-04-21 16:13 44.78851 -127.58707 36911 ft 463 kts 152°
2026-04-21 16:14 44.73090 -127.54633 36907 ft 462 kts 152°
2026-04-21 16:14 44.67361 -127.50590 36907 ft 462 kts 152°
2026-04-21 16:15 44.61625 -127.46552 36901 ft 461 kts 152°
2026-04-21 16:15 44.55875 -127.42513 36905 ft 463 kts 152°
2026-04-21 16:16 44.50132 -127.38489 36903 ft 462 kts 152°
2026-04-21 16:16 44.44387 -127.34471 36892 ft 462 kts 153°
2026-04-21 16:17 44.38637 -127.30459 36891 ft 461 kts 153°
2026-04-21 16:17 44.32898 -127.26463 36889 ft 461 kts 153°
2026-04-21 16:18 44.27153 -127.22472 36890 ft 460 kts 153°
2026-04-21 16:18 44.21415 -127.18494 36886 ft 460 kts 153°
2026-04-21 16:19 44.15678 -127.14526 36889 ft 462 kts 153°
2026-04-21 16:19 44.09923 -127.10555 36885 ft 463 kts 153°
2026-04-21 16:20 44.04133 -127.06567 36888 ft 462 kts 153°
2026-04-21 16:20 43.98369 -127.02607 36903 ft 460 kts 153°
2026-04-21 16:21 43.92642 -126.98680 36900 ft 461 kts 153°
2026-04-21 16:21 43.86887 -126.94743 36904 ft 461 kts 153°
2026-04-21 16:22 43.81124 -126.90808 36887 ft 460 kts 153°
2026-04-21 16:22 43.75397 -126.86907 36882 ft 461 kts 153°
2026-04-21 16:23 43.69658 -126.83006 36888 ft 460 kts 153°
2026-04-21 16:23 43.63923 -126.79116 36893 ft 462 kts 153°
2026-04-21 16:24 43.58165 -126.75219 36891 ft 459 kts 153°
2026-04-21 16:24 43.52461 -126.71366 36886 ft 459 kts 153°
2026-04-21 16:25 43.46690 -126.67477 36892 ft 460 kts 153°
2026-04-21 16:25 43.40974 -126.63642 36897 ft 460 kts 154°
2026-04-21 16:26 43.35231 -126.59817 36893 ft 462 kts 154°
2026-04-21 16:26 43.29471 -126.55990 36890 ft 460 kts 154°
2026-04-21 16:27 43.23703 -126.52163 36892 ft 461 kts 154°
2026-04-21 16:27 43.17964 -126.48364 36888 ft 461 kts 154°
2026-04-21 16:28 43.12173 -126.44538 36880 ft 461 kts 154°
2026-04-21 16:28 43.06435 -126.40756 36880 ft 461 kts 154°
2026-04-21 16:29 43.01636 -126.37598 36880 ft 459 kts 154°
2026-04-21 16:29 42.94903 -126.33176 36887 ft 461 kts 155°
2026-04-21 16:30 42.89127 -126.29392 36897 ft 461 kts 155°
2026-04-21 16:30 42.83360 -126.25621 36893 ft 462 kts 155°
2026-04-21 16:31 42.77605 -126.21866 36888 ft 462 kts 155°
2026-04-21 16:31 42.71783 -126.18031 36875 ft 463 kts 152°
2026-04-21 16:32 42.66330 -126.13507 36880 ft 464 kts 148°
2026-04-21 16:32 42.60871 -126.08884 36883 ft 462 kts 149°
2026-04-21 16:33 42.55431 -126.04290 36884 ft 460 kts 149°
2026-04-21 16:33 42.49982 -125.99702 36890 ft 461 kts 149°
2026-04-21 16:34 42.44506 -125.95103 36891 ft 462 kts 149°
2026-04-21 16:34 42.39071 -125.90547 36879 ft 462 kts 149°
2026-04-21 16:35 42.33579 -125.85955 36893 ft 463 kts 149°
2026-04-21 16:35 42.28144 -125.81420 36883 ft 464 kts 149°
2026-04-21 16:36 42.22625 -125.76823 36888 ft 465 kts 149°
2026-04-21 16:36 42.17149 -125.72272 36889 ft 464 kts 149°
2026-04-21 16:37 42.11664 -125.67725 36904 ft 464 kts 149°
2026-04-21 16:37 42.06200 -125.63203 36887 ft 463 kts 149°
2026-04-21 16:38 42.00713 -125.58671 36903 ft 463 kts 149°
2026-04-21 16:38 41.95238 -125.54159 36898 ft 461 kts 149°
2026-04-21 16:39 41.89798 -125.49684 36892 ft 463 kts 149°
2026-04-21 16:39 41.84288 -125.45161 36888 ft 463 kts 149°
2026-04-21 16:40 41.78804 -125.40669 36890 ft 463 kts 149°
2026-04-21 16:40 41.73337 -125.36200 36899 ft 465 kts 150°
2026-04-21 16:41 41.68766 -125.32470 36897 ft 464 kts 150°
2026-04-21 16:41 41.62357 -125.27250 36885 ft 463 kts 150°
2026-04-21 16:42 41.56839 -125.22767 36888 ft 462 kts 150°
2026-04-21 16:42 41.51359 -125.18323 36892 ft 465 kts 150°
2026-04-21 16:43 41.45862 -125.13874 36889 ft 464 kts 150°
2026-04-21 16:43 41.40342 -125.09416 36886 ft 463 kts 151°
2026-04-21 16:44 41.34844 -125.04984 36882 ft 463 kts 151°
2026-04-21 16:44 41.29329 -125.00548 36888 ft 461 kts 151°
2026-04-21 16:45 41.23841 -124.96142 36899 ft 464 kts 151°
2026-04-21 16:45 41.18336 -124.91731 36908 ft 464 kts 151°
2026-04-21 16:46 41.12836 -124.87333 36905 ft 463 kts 151°
2026-04-21 16:46 41.07295 -124.82911 36913 ft 463 kts 151°
2026-04-21 16:47 41.01790 -124.78526 36904 ft 464 kts 151°
2026-04-21 16:47 40.96285 -124.74150 36910 ft 464 kts 151°
2026-04-21 16:48 40.90753 -124.69761 36905 ft 463 kts 151°
2026-04-21 16:48 40.85234 -124.65391 36920 ft 463 kts 151°
2026-04-21 16:49 40.79749 -124.61056 36918 ft 462 kts 151°
2026-04-21 16:49 40.74228 -124.56702 36918 ft 463 kts 151°
2026-04-21 16:50 40.68703 -124.52353 36915 ft 461 kts 151°
2026-04-21 16:50 40.63227 -124.48051 36919 ft 462 kts 151°
2026-04-21 16:51 40.57688 -124.43708 36915 ft 462 kts 152°
2026-04-21 16:51 40.52181 -124.39397 36914 ft 460 kts 152°
2026-04-21 16:52 40.46714 -124.35128 36910 ft 461 kts 152°
2026-04-21 16:52 40.42108 -124.31536 36904 ft 459 kts 152°
2026-04-21 16:53 40.35713 -124.26560 36899 ft 459 kts 152°
2026-04-21 16:53 40.30216 -124.22292 36903 ft 460 kts 152°
2026-04-21 16:54 40.24730 -124.18039 36904 ft 458 kts 152°
2026-04-21 16:54 40.19247 -124.13797 36904 ft 459 kts 153°
2026-04-21 16:55 40.13737 -124.09543 36903 ft 458 kts 153°
2026-04-21 16:55 40.08244 -124.05309 36905 ft 459 kts 153°
2026-04-21 16:56 40.02756 -124.01087 36902 ft 456 kts 153°
2026-04-21 16:56 39.97312 -123.96908 36899 ft 457 kts 153°
2026-04-21 16:57 39.91845 -123.92718 36907 ft 457 kts 153°
2026-04-21 16:57 39.86345 -123.88512 36919 ft 458 kts 153°
2026-04-21 16:58 39.80891 -123.84347 36924 ft 458 kts 153°
2026-04-21 16:58 39.75394 -123.80158 36924 ft 459 kts 153°
2026-04-21 16:59 39.69889 -123.75970 36926 ft 457 kts 153°
2026-04-21 16:59 39.64400 -123.71803 36928 ft 457 kts 153°
2026-04-21 17:00 39.58899 -123.67635 36932 ft 458 kts 153°
2026-04-21 17:00 39.54348 -123.64191 36928 ft 458 kts 153°
2026-04-21 17:01 39.47930 -123.59345 36929 ft 457 kts 153°
2026-04-21 17:01 39.42404 -123.55181 36930 ft 458 kts 153°
2026-04-21 17:02 39.36919 -123.51055 36933 ft 460 kts 153°
2026-04-21 17:02 39.31393 -123.46905 36929 ft 457 kts 153°
2026-04-21 17:03 39.25915 -123.42800 36929 ft 457 kts 153°
2026-04-21 17:03 39.20377 -123.38657 36929 ft 457 kts 153°
2026-04-21 17:04 39.14893 -123.34562 36922 ft 458 kts 154°
2026-04-21 17:04 39.09384 -123.30456 36923 ft 458 kts 154°
2026-04-21 17:05 39.03984 -123.26131 36919 ft 462 kts 147°
2026-04-21 17:05 38.98933 -123.20944 36926 ft 463 kts 146°
2026-04-21 17:06 38.93941 -123.15802 36920 ft 461 kts 146°
2026-04-21 17:06 38.88916 -123.10651 36936 ft 461 kts 146°
2026-04-21 17:07 38.84732 -123.06375 36944 ft 462 kts 146°
2026-04-21 17:07 38.78876 -123.00407 36957 ft 461 kts 146°
2026-04-21 17:08 38.73858 -122.95305 36961 ft 463 kts 146°
2026-04-21 17:08 38.68822 -122.90196 36958 ft 462 kts 146°
2026-04-21 17:09 38.61273 -122.82555 36966 ft 462 kts 146°
2026-04-21 17:09 38.56247 -122.77480 36963 ft 461 kts 146°
2026-04-21 17:10 38.51212 -122.72407 36969 ft 462 kts 146°
2026-04-21 17:10 38.46186 -122.67350 36971 ft 461 kts 147°
2026-04-21 17:11 38.41123 -122.62266 36966 ft 460 kts 146°
2026-04-21 17:11 38.36109 -122.57241 36975 ft 463 kts 147°
2026-04-21 17:12 38.31050 -122.52179 36977 ft 460 kts 147°
2026-04-21 17:12 38.26021 -122.47157 36980 ft 461 kts 147°
2026-04-21 17:13 38.20995 -122.42147 36983 ft 460 kts 147°
2026-04-21 17:13 38.15971 -122.37148 36980 ft 460 kts 147°
2026-04-21 17:14 38.10933 -122.32144 36973 ft 460 kts 148°
2026-04-21 17:14 38.05904 -122.27158 36968 ft 459 kts 147°
2026-04-21 17:15 38.00893 -122.22199 36976 ft 456 kts 148°
2026-04-21 17:15 37.95889 -122.17255 36970 ft 459 kts 148°
2026-04-21 17:16 37.90849 -122.12285 36971 ft 458 kts 148°
2026-04-21 17:16 37.85836 -122.07351 36979 ft 460 kts 148°
2026-04-21 17:17 37.80821 -122.02422 36986 ft 458 kts 148°
2026-04-21 17:17 37.75795 -121.97491 36978 ft 457 kts 148°
2026-04-21 17:18 37.70744 -121.92545 36989 ft 459 kts 148°
2026-04-21 17:18 37.65677 -121.87594 36992 ft 461 kts 148°
2026-04-21 17:19 37.60584 -121.82622 36993 ft 458 kts 148°
2026-04-21 17:19 37.55512 -121.77683 37000 ft 458 kts 148°
2026-04-21 17:20 37.50461 -121.72771 37003 ft 454 kts 148°
2026-04-21 17:20 37.45427 -121.67886 36991 ft 457 kts 148°
2026-04-21 17:21 37.40383 -121.62999 36990 ft 456 kts 149°
2026-04-21 17:21 37.35333 -121.58115 37011 ft 459 kts 149°
2026-04-21 17:22 37.30251 -121.53207 36997 ft 455 kts 149°
2026-04-21 17:22 37.25191 -121.48332 36999 ft 458 kts 149°
2026-04-21 17:23 37.20100 -121.43432 36983 ft 456 kts 149°
2026-04-21 17:23 37.15036 -121.38569 36959 ft 458 kts 149°
2026-04-21 17:24 37.09931 -121.33675 37001 ft 459 kts 150°
2026-04-21 17:24 37.04872 -121.28831 36999 ft 458 kts 150°
2026-04-21 17:25 36.99839 -121.24021 37000 ft 455 kts 150°
2026-04-21 17:25 36.94769 -121.19187 36988 ft 458 kts 150°
2026-04-21 17:26 36.89714 -121.14372 36961 ft 456 kts 150°
2026-04-21 17:26 36.84645 -121.09555 36987 ft 458 kts 150°
2026-04-21 17:27 36.79602 -121.04766 36994 ft 453 kts 151°
2026-04-21 17:27 36.74574 -121.00006 37002 ft 460 kts 151°
2026-04-21 17:28 36.69498 -120.95203 37005 ft 455 kts 151°
2026-04-21 17:28 36.64456 -120.90443 37000 ft 456 kts 151°
2026-04-21 17:29 36.59383 -120.85663 37005 ft 457 kts 151°
2026-04-21 17:29 36.54343 -120.80919 37006 ft 457 kts 151°
2026-04-21 17:30 36.49283 -120.76166 37001 ft 457 kts 151°
2026-04-21 17:30 36.44230 -120.71427 37009 ft 457 kts 151°
2026-04-21 17:31 36.39140 -120.66663 36987 ft 458 kts 152°
2026-04-21 17:31 36.34064 -120.61918 37004 ft 458 kts 152°
2026-04-21 17:32 36.29007 -120.57195 36988 ft 455 kts 152°
2026-04-21 17:32 36.23896 -120.52438 37031 ft 458 kts 152°
2026-04-21 17:33 36.18799 -120.47699 36992 ft 463 kts 152°
2026-04-21 17:33 36.13691 -120.42954 37020 ft 461 kts 152°
2026-04-21 17:34 36.08569 -120.38203 37022 ft 458 kts 153°
2026-04-21 17:34 36.03464 -120.33482 36997 ft 459 kts 153°
2026-04-21 17:35 35.98281 -120.28697 37015 ft 465 kts 153°
2026-04-21 17:35 35.93129 -120.23938 37003 ft 458 kts 153°
2026-04-21 17:36 35.87989 -120.19210 37031 ft 463 kts 153°
2026-04-21 17:36 35.82849 -120.14484 37035 ft 460 kts 153°
2026-04-21 17:37 35.77718 -120.09774 37041 ft 462 kts 153°
2026-04-21 17:37 35.72567 -120.05054 37035 ft 459 kts 153°
2026-04-21 17:38 35.67384 -120.00317 37023 ft 462 kts 154°
2026-04-21 17:38 35.62090 -119.95972 37052 ft 459 kts 159°
2026-04-21 17:39 35.56649 -119.91964 37036 ft 449 kts 159°
2026-04-21 17:39 35.51225 -119.87994 37063 ft 456 kts 159°
2026-04-21 17:40 35.45755 -119.83993 37034 ft 457 kts 159°
2026-04-21 17:40 35.42998 -119.81983 36681 ft 463 kts 159°
2026-04-21 17:40 35.40231 -119.79964 35952 ft 462 kts 160°
2026-04-21 17:41 35.37480 -119.77956 35510 ft 458 kts 160°
2026-04-21 17:41 35.34751 -119.75966 35127 ft 457 kts 160°
2026-04-21 17:41 35.32004 -119.73965 34723 ft 455 kts 160°
2026-04-21 17:41 35.29265 -119.71976 34325 ft 459 kts 160°
2026-04-21 17:42 35.26548 -119.70004 33921 ft 460 kts 160°
2026-04-21 17:42 35.23758 -119.67981 33479 ft 462 kts 160°
2026-04-21 17:42 35.21027 -119.65997 33025 ft 458 kts 160°
2026-04-21 17:42 35.18276 -119.64002 32573 ft 460 kts 160°
2026-04-21 17:43 35.15534 -119.62020 32122 ft 462 kts 160°
2026-04-21 17:43 35.12767 -119.60016 31662 ft 458 kts 159°
2026-04-21 17:43 35.10066 -119.58060 31211 ft 455 kts 159°
2026-04-21 17:43 35.07309 -119.56070 30754 ft 457 kts 159°
2026-04-21 17:44 35.04561 -119.54086 30289 ft 459 kts 159°
2026-04-21 17:44 35.01827 -119.52116 29836 ft 458 kts 159°
2026-04-21 17:44 34.99100 -119.50147 29368 ft 453 kts 159°
2026-04-21 17:44 34.96398 -119.48198 28902 ft 446 kts 159°
2026-04-21 17:45 34.93773 -119.46306 28442 ft 440 kts 159°
2026-04-21 17:45 34.91157 -119.44424 27980 ft 436 kts 159°
2026-04-21 17:45 34.88553 -119.42554 27528 ft 436 kts 159°
2026-04-21 17:45 34.85911 -119.40662 27082 ft 437 kts 159°
2026-04-21 17:46 34.83322 -119.38802 26638 ft 432 kts 159°
2026-04-21 17:46 34.80758 -119.36962 26197 ft 425 kts 159°
2026-04-21 17:46 34.78222 -119.35144 25757 ft 421 kts 158°
2026-04-21 17:46 34.75701 -119.33340 25294 ft 423 kts 159°
2026-04-21 17:47 34.73226 -119.31302 24823 ft 428 kts 154°
2026-04-21 17:47 34.70824 -119.29176 24369 ft 427 kts 153°
2026-04-21 17:47 34.68463 -119.27081 23925 ft 423 kts 153°
2026-04-21 17:47 34.66082 -119.24970 23473 ft 418 kts 153°
2026-04-21 17:48 34.64528 -119.23594 23178 ft 416 kts 153°
2026-04-21 17:48 34.61419 -119.20847 22597 ft 412 kts 153°
2026-04-21 17:48 34.59120 -119.18816 22166 ft 406 kts 154°
2026-04-21 17:48 34.56843 -119.16808 21727 ft 400 kts 153°
2026-04-21 17:49 34.54617 -119.14847 21299 ft 394 kts 153°
2026-04-21 17:49 34.52415 -119.12909 20861 ft 390 kts 153°
2026-04-21 17:49 34.50200 -119.10963 20416 ft 389 kts 153°
2026-04-21 17:49 34.48010 -119.09040 19977 ft 386 kts 153°
2026-04-21 17:50 34.45848 -119.07142 19551 ft 385 kts 153°
2026-04-21 17:50 34.43685 -119.05245 19112 ft 383 kts 153°
2026-04-21 17:50 34.41526 -119.03352 18668 ft 380 kts 153°
2026-04-21 17:50 34.39412 -119.01499 18226 ft 377 kts 153°
2026-04-21 17:51 34.37293 -118.99644 17791 ft 374 kts 153°
2026-04-21 17:51 34.35196 -118.97807 17356 ft 369 kts 153°
2026-04-21 17:51 34.33117 -118.95988 16903 ft 365 kts 153°
2026-04-21 17:51 34.31085 -118.94212 16450 ft 362 kts 153°
2026-04-21 17:52 34.29044 -118.92430 15972 ft 358 kts 153°
2026-04-21 17:52 34.27029 -118.90672 15491 ft 356 kts 153°
2026-04-21 17:52 34.25017 -118.88914 15013 ft 354 kts 152°
2026-04-21 17:52 34.23062 -118.87126 14529 ft 352 kts 151°
2026-04-21 17:53 34.21131 -118.85339 13978 ft 348 kts 150°
2026-04-21 17:53 34.19249 -118.83598 13490 ft 334 kts 150°
2026-04-21 17:53 34.17457 -118.81945 13006 ft 322 kts 150°
2026-04-21 17:53 34.15701 -118.80307 12509 ft 314 kts 147°
2026-04-21 17:54 34.14101 -118.78554 12026 ft 308 kts 144°
2026-04-21 17:54 34.12539 -118.76799 11575 ft 307 kts 144°
2026-04-21 17:54 34.10971 -118.75066 11052 ft 300 kts 144°
2026-04-21 17:54 34.09467 -118.73422 10563 ft 293 kts 144°
2026-04-21 17:55 34.07958 -118.71780 10064 ft 286 kts 144°
2026-04-21 17:55 34.06504 -118.70202 9568 ft 281 kts 144°
2026-04-21 17:55 34.05058 -118.68636 9134 ft 282 kts 144°
2026-04-21 17:55 34.03650 -118.66936 8620 ft 292 kts 130°
2026-04-21 17:56 34.02829 -118.64624 8081 ft 306 kts 106°
2026-04-21 17:56 34.02515 -118.62079 7587 ft 312 kts 100°
2026-04-21 17:56 34.02287 -118.59441 7084 ft 316 kts 99°
2026-04-21 17:56 34.02055 -118.56816 6589 ft 318 kts 99°
2026-04-21 17:57 34.01808 -118.54139 6128 ft 319 kts 99°
2026-04-21 17:57 34.01570 -118.51559 5989 ft 298 kts 99°
2026-04-21 17:57 34.01350 -118.49193 5882 ft 284 kts 99°
2026-04-21 17:57 34.01125 -118.46786 5410 ft 289 kts 97°
2026-04-21 17:58 34.01259 -118.44394 5234 ft 282 kts 82°
2026-04-21 17:58 34.01624 -118.42150 5262 ft 268 kts 80°
2026-04-21 17:58 34.01998 -118.40006 5300 ft 252 kts 80°
2026-04-21 17:58 34.02348 -118.37997 5336 ft 236 kts 81°
2026-04-21 17:59 34.02673 -118.36110 5375 ft 226 kts 81°
2026-04-21 17:59 34.02928 -118.34258 5356 ft 229 kts 87°
2026-04-21 17:59 34.03098 -118.32275 4892 ft 239 kts 87°
2026-04-21 17:59 34.03290 -118.30236 4381 ft 250 kts 86°
2026-04-21 18:00 34.03507 -118.28117 3866 ft 260 kts 84°
2026-04-21 18:00 34.03739 -118.25941 3339 ft 267 kts 84°
2026-04-21 18:00 34.03975 -118.23737 2802 ft 266 kts 85°
2026-04-21 18:00 34.03987 -118.21545 2325 ft 259 kts 107°
2026-04-21 18:01 34.03179 -118.19740 2208 ft 235 kts 137°
2026-04-21 18:01 34.01844 -118.18833 2233 ft 213 kts 167°
2026-04-21 18:01 34.00440 -118.18973 2193 ft 194 kts 201°
2026-04-21 18:01 33.99399 -118.19871 2197 ft 178 kts 230°
2026-04-21 18:02 33.98995 -118.20735 2208 ft 175 kts 243°
2026-04-21 18:02 33.98346 -118.22497 2216 ft 175 kts 244°
2026-04-21 18:02 33.97861 -118.23820 2217 ft 174 kts 244°
2026-04-21 18:02 33.97370 -118.25129 2208 ft 167 kts 237°
2026-04-21 18:03 33.96714 -118.26245 2214 ft 164 kts 237°
2026-04-21 18:03 33.96453 -118.27566 2197 ft 163 kts 264°
2026-04-21 18:03 33.96372 -118.28929 1976 ft 163 kts 260°
2026-04-21 18:03 33.96226 -118.30280 1763 ft 157 kts 259°
2026-04-21 18:04 33.96094 -118.31577 1556 ft 154 kts 260°
2026-04-21 18:04 33.95967 -118.32826 1354 ft 148 kts 259°
2026-04-21 18:04 33.95844 -118.34029 1157 ft 145 kts 260°
2026-04-21 18:04 33.95723 -118.35204 972 ft 145 kts 259°
2026-04-21 18:05 33.95604 -118.36394 784 ft 146 kts 261°
2026-04-21 18:05 33.95477 -118.37614 587 ft 150 kts 260°
2026-04-21 18:05 33.95351 -118.38848 363 ft 148 kts 260°
2026-04-21 18:05 33.95223 -118.40089 180 ft 148 kts 261°
2026-04-21 18:06 33.95106 -118.41203 130 ft 116 kts 262°
2026-04-21 18:06 33.95024 -118.41988 127 ft 72 kts 264°
2026-04-21 18:06 33.94986 -118.42358 126 ft 20 kts 262°
2026-04-21 18:06 33.94942 -118.42526 123 ft 20 kts 243°
2026-04-21 18:07 33.94871 -118.42651 121 ft 17 kts 230°
2026-04-21 18:07 33.94775 -118.42751 117 ft 18 kts 206°
2026-04-21 18:07 33.94654 -118.42776 117 ft 15 kts 175°
2026-04-21 18:07 33.94579 -118.42757 115 ft 8 kts 152°
2026-04-21 18:08 33.94559 -118.42693 115 ft 8 kts 91°
2026-04-21 18:08 33.94563 -118.42619 116 ft 9 kts 84°
2026-04-21 18:08 33.94571 -118.42542 117 ft 10 kts 83°
2026-04-21 18:08 33.94581 -118.42442 119 ft 13 kts 83°
2026-04-21 18:09 33.94592 -118.42321 122 ft 15 kts 83°
2026-04-21 18:09 33.94606 -118.42181 123 ft 18 kts 83°
2026-04-21 18:09 33.94617 -118.42072 124 ft 20 kts 83°
2026-04-21 18:09 33.94634 -118.41878 126 ft 16 kts 84°
2026-04-21 18:10 33.94646 -118.41767 126 ft 15 kts 83°
2026-04-21 18:10 33.94658 -118.41630 126 ft 14 kts 83°
2026-04-21 18:10 33.94671 -118.41509 126 ft 13 kts 83°
2026-04-21 18:10 33.94683 -118.41396 127 ft 13 kts 83°
2026-04-21 18:11 33.94694 -118.41292 128 ft 11 kts 81°
2026-04-21 18:11 33.94715 -118.41205 130 ft 10 kts 73°
2026-04-21 18:11 33.94732 -118.41116 130 ft 11 kts 80°
2026-04-21 18:11 33.94742 -118.41015 130 ft 12 kts 85°
2026-04-21 18:12 33.94716 -118.40926 128 ft 12 kts 137°
2026-04-21 18:12 33.94680 -118.40868 127 ft 7 kts 117°